RUDE1 LRBV-EPKK

Flight info

Callsign RUDE1
Flight time 0h 59m
Altitude 40000
Route EBCOL DCT JIBOU DCT LENOV
Aircraft CL60/M-SBDE1E2E3FGHIJ1J4J5J7M3RWXYZ/LB1V1D1

Departure

Time 2026-05-06 13:16
Airport Brașov-Ghimbav International Airport (LRBV)

Arrival

Time 2026-05-06 14:15
Airport Kraków John Paul II International Airport (EPKK)
Time Latitude Longitude Altitude Speed Heading
2026-05-06 13:08 45.69487 25.51642 1773 ft 0 kts 125°
2026-05-06 13:13 45.69479 25.51649 1773 ft 2 kts 183°
2026-05-06 13:13 45.69476 25.51628 1773 ft 4 kts 292°
2026-05-06 13:13 45.69490 25.51577 1773 ft 7 kts 291°
2026-05-06 13:14 45.69512 25.51495 1774 ft 10 kts 295°
2026-05-06 13:14 45.69546 25.51410 1774 ft 10 kts 301°
2026-05-06 13:14 45.69597 25.51324 1774 ft 11 kts 334°
2026-05-06 13:14 45.69707 25.51382 1772 ft 22 kts 40°
2026-05-06 13:15 45.69836 25.51527 1770 ft 25 kts 37°
2026-05-06 13:15 45.69988 25.51688 1766 ft 30 kts 37°
2026-05-06 13:15 45.70221 25.51932 1761 ft 52 kts 37°
2026-05-06 13:15 45.70520 25.52241 1754 ft 50 kts 36°
2026-05-06 13:16 45.70641 25.52384 1750 ft 5 kts 341°
2026-05-06 13:16 45.70522 25.52244 1754 ft 73 kts 217°
2026-05-06 13:16 45.69815 25.51499 1906 ft 156 kts 216°
2026-05-06 13:16 45.68969 25.50600 2960 ft 160 kts 214°
2026-05-06 13:17 45.68056 25.49665 4058 ft 172 kts 215°
2026-05-06 13:17 45.67078 25.48670 5120 ft 189 kts 216°
2026-05-06 13:17 45.65930 25.47472 5927 ft 229 kts 217°
2026-05-06 13:17 45.64527 25.46003 6714 ft 267 kts 217°
2026-05-06 13:18 45.63006 25.44412 7989 ft 283 kts 217°
2026-05-06 13:18 45.61430 25.42767 9448 ft 290 kts 217°
2026-05-06 13:18 45.59793 25.41033 10892 ft 298 kts 220°
2026-05-06 13:18 45.58566 25.38719 12253 ft 304 kts 249°
2026-05-06 13:19 45.58319 25.35776 13641 ft 305 kts 281°
2026-05-06 13:19 45.59150 25.33092 15031 ft 303 kts 310°
2026-05-06 13:19 45.60774 25.31005 15730 ft 327 kts 325°
2026-05-06 13:19 45.62918 25.29443 15956 ft 361 kts 342°
2026-05-06 13:20 45.65430 25.28606 16607 ft 379 kts 346°
2026-05-06 13:20 45.67843 25.27063 17510 ft 388 kts 327°
2026-05-06 13:20 45.70041 25.24826 18441 ft 395 kts 323°
2026-05-06 13:20 45.72249 25.22438 19480 ft 398 kts 322°
2026-05-06 13:21 45.74401 25.20003 20509 ft 399 kts 322°
2026-05-06 13:21 45.76567 25.17543 21455 ft 401 kts 322°
2026-05-06 13:21 45.78743 25.15069 22294 ft 405 kts 322°
2026-05-06 13:21 45.80960 25.12544 23119 ft 408 kts 322°
2026-05-06 13:22 45.83196 25.09996 23889 ft 411 kts 322°
2026-05-06 13:22 45.85465 25.07405 24631 ft 415 kts 322°
2026-05-06 13:22 45.87706 25.04844 25348 ft 417 kts 322°
2026-05-06 13:22 45.90003 25.02215 26014 ft 419 kts 321°
2026-05-06 13:23 45.92289 24.99595 26589 ft 422 kts 321°
2026-05-06 13:23 45.94597 24.96947 27130 ft 426 kts 321°
2026-05-06 13:23 45.96904 24.94297 27647 ft 429 kts 321°
2026-05-06 13:23 45.99258 24.91589 28172 ft 431 kts 321°
2026-05-06 13:24 46.01609 24.88882 28657 ft 433 kts 321°
2026-05-06 13:24 46.03949 24.86184 29091 ft 436 kts 321°
2026-05-06 13:24 46.06336 24.83429 29527 ft 438 kts 321°
2026-05-06 13:24 46.08722 24.80672 30027 ft 437 kts 321°
2026-05-06 13:25 46.11114 24.77904 30616 ft 434 kts 321°
2026-05-06 13:25 46.13473 24.75172 31213 ft 431 kts 321°
2026-05-06 13:25 46.15811 24.72460 31809 ft 428 kts 321°
2026-05-06 13:25 46.18120 24.69779 32394 ft 425 kts 321°
2026-05-06 13:26 46.20396 24.67133 32934 ft 422 kts 321°
2026-05-06 13:26 46.22707 24.64444 33424 ft 421 kts 321°
2026-05-06 13:26 46.24992 24.61782 33882 ft 420 kts 321°
2026-05-06 13:26 46.27275 24.59119 34342 ft 418 kts 321°
2026-05-06 13:27 46.29534 24.56482 34739 ft 417 kts 320°
2026-05-06 13:27 46.31819 24.53810 35070 ft 418 kts 320°
2026-05-06 13:27 46.34066 24.51181 35391 ft 417 kts 320°
2026-05-06 13:27 46.36351 24.48504 35723 ft 417 kts 320°
2026-05-06 13:28 46.38606 24.45859 36030 ft 416 kts 320°
2026-05-06 13:28 46.40859 24.43215 36307 ft 416 kts 320°
2026-05-06 13:28 46.43093 24.40588 36615 ft 416 kts 320°
2026-05-06 13:28 46.45394 24.37880 36969 ft 416 kts 320°
2026-05-06 13:29 46.47630 24.35247 37331 ft 415 kts 320°
2026-05-06 13:29 46.49904 24.32565 37664 ft 415 kts 320°
2026-05-06 13:29 46.52150 24.29913 37848 ft 418 kts 320°
2026-05-06 13:29 46.54419 24.27232 38006 ft 420 kts 320°
2026-05-06 13:30 46.56714 24.24515 38159 ft 423 kts 320°
2026-05-06 13:30 46.59013 24.21792 38340 ft 424 kts 320°
2026-05-06 13:30 46.61317 24.19059 38510 ft 425 kts 320°
2026-05-06 13:30 46.63640 24.16301 38682 ft 426 kts 319°
2026-05-06 13:31 46.65940 24.13567 38800 ft 428 kts 319°
2026-05-06 13:31 46.68250 24.10818 38910 ft 429 kts 319°
2026-05-06 13:31 46.70578 24.08045 39039 ft 431 kts 320°
2026-05-06 13:31 46.72912 24.05261 39201 ft 431 kts 320°
2026-05-06 13:32 46.75258 24.02459 39313 ft 432 kts 319°
2026-05-06 13:32 46.77621 23.99634 39437 ft 433 kts 319°
2026-05-06 13:32 46.79959 23.96835 39545 ft 435 kts 319°
2026-05-06 13:32 46.82295 23.94036 39657 ft 436 kts 319°
2026-05-06 13:33 46.84624 23.91242 39788 ft 436 kts 319°
2026-05-06 13:33 46.86991 23.88399 39904 ft 437 kts 319°
2026-05-06 13:33 46.89339 23.85575 39949 ft 439 kts 319°
2026-05-06 13:34 46.94111 23.79826 39957 ft 445 kts 319°
2026-05-06 13:34 46.98915 23.74024 39957 ft 451 kts 319°
2026-05-06 13:35 47.03769 23.68150 39961 ft 453 kts 319°
2026-05-06 13:35 47.08672 23.62201 39971 ft 454 kts 319°
2026-05-06 13:36 47.13547 23.56271 39969 ft 454 kts 319°
2026-05-06 13:36 47.18436 23.50309 39975 ft 454 kts 319°
2026-05-06 13:37 47.23307 23.44356 39969 ft 454 kts 319°
2026-05-06 13:37 47.28190 23.38372 39966 ft 454 kts 319°
2026-05-06 13:38 47.33083 23.32361 39958 ft 454 kts 318°
2026-05-06 13:38 47.37950 23.26368 39950 ft 455 kts 318°
2026-05-06 13:39 47.42788 23.20394 39948 ft 455 kts 318°
2026-05-06 13:39 47.47684 23.14335 39950 ft 455 kts 318°
2026-05-06 13:40 47.52677 23.08610 39956 ft 456 kts 321°
2026-05-06 13:40 47.57793 23.03009 39963 ft 456 kts 321°
2026-05-06 13:41 47.62895 22.97406 39962 ft 456 kts 321°
2026-05-06 13:41 47.68045 22.91732 39951 ft 457 kts 321°
2026-05-06 13:42 47.73177 22.86063 39947 ft 457 kts 321°
2026-05-06 13:42 47.78306 22.80382 39939 ft 456 kts 321°
2026-05-06 13:43 47.83404 22.74721 39946 ft 457 kts 321°
2026-05-06 13:43 47.88513 22.69031 39939 ft 457 kts 321°
2026-05-06 13:44 47.93619 22.63330 39945 ft 457 kts 320°
2026-05-06 13:44 47.98723 22.57617 39936 ft 458 kts 320°
2026-05-06 13:45 48.03846 22.51867 39935 ft 459 kts 320°
2026-05-06 13:45 48.11533 22.43212 39931 ft 459 kts 320°
2026-05-06 13:46 48.16648 22.37436 39934 ft 458 kts 320°
2026-05-06 13:46 48.21772 22.31632 39927 ft 459 kts 320°
2026-05-06 13:47 48.26876 22.25836 39930 ft 459 kts 320°
2026-05-06 13:47 48.31987 22.20019 39918 ft 459 kts 319°
2026-05-06 13:48 48.37125 22.14154 39908 ft 460 kts 319°
2026-05-06 13:48 48.42238 22.08304 39910 ft 461 kts 320°
2026-05-06 13:49 48.47364 22.02423 39907 ft 461 kts 320°
2026-05-06 13:49 48.52486 21.96531 39902 ft 460 kts 319°
2026-05-06 13:50 48.57592 21.90642 39887 ft 461 kts 320°
2026-05-06 13:50 48.62681 21.84726 39884 ft 461 kts 319°
2026-05-06 13:51 48.67793 21.78810 39701 ft 457 kts 319°
2026-05-06 13:51 48.70324 21.75875 39165 ft 452 kts 319°
2026-05-06 13:51 48.72827 21.72968 38699 ft 453 kts 319°
2026-05-06 13:52 48.75302 21.70088 38039 ft 449 kts 319°
2026-05-06 13:52 48.77817 21.67158 37483 ft 450 kts 319°
2026-05-06 13:52 48.80302 21.64258 36907 ft 450 kts 319°
2026-05-06 13:52 48.82774 21.61369 36356 ft 451 kts 319°
2026-05-06 13:53 48.85275 21.58443 35716 ft 453 kts 319°
2026-05-06 13:53 48.87784 21.55504 35110 ft 454 kts 319°
2026-05-06 13:53 48.90282 21.52573 34483 ft 456 kts 319°
2026-05-06 13:53 48.92828 21.49583 33885 ft 458 kts 319°
2026-05-06 13:54 48.95338 21.46629 33269 ft 461 kts 319°
2026-05-06 13:54 48.97884 21.43630 32664 ft 461 kts 319°
2026-05-06 13:54 49.00444 21.40609 32034 ft 466 kts 319°
2026-05-06 13:54 49.03016 21.37571 31440 ft 466 kts 320°
2026-05-06 13:55 49.05563 21.34559 30809 ft 462 kts 319°
2026-05-06 13:55 49.08102 21.31554 30190 ft 458 kts 319°
2026-05-06 13:55 49.10625 21.28562 29581 ft 463 kts 319°
2026-05-06 13:55 49.13158 21.25550 28968 ft 469 kts 319°
2026-05-06 13:56 49.15696 21.22531 28345 ft 469 kts 319°
2026-05-06 13:56 49.18243 21.19500 27749 ft 465 kts 319°
2026-05-06 13:56 49.20839 21.16405 27127 ft 462 kts 319°
2026-05-06 13:56 49.23306 21.13462 26539 ft 458 kts 319°
2026-05-06 13:57 49.25868 21.10400 25912 ft 454 kts 319°
2026-05-06 13:57 49.28366 21.07412 25304 ft 450 kts 319°
2026-05-06 13:57 49.30832 21.04460 24708 ft 446 kts 319°
2026-05-06 13:57 49.33255 21.01510 24122 ft 441 kts 317°
2026-05-06 13:58 49.35350 20.98089 23521 ft 435 kts 308°
2026-05-06 13:58 49.37286 20.94538 22922 ft 423 kts 308°
2026-05-06 13:58 49.39170 20.91099 22382 ft 409 kts 308°
2026-05-06 13:58 49.40974 20.87801 21839 ft 397 kts 307°
2026-05-06 13:59 49.42760 20.84533 21312 ft 385 kts 307°
2026-05-06 13:59 49.44447 20.81444 20803 ft 375 kts 307°
2026-05-06 13:59 49.46105 20.78404 20312 ft 366 kts 307°
2026-05-06 13:59 49.47746 20.75391 19825 ft 367 kts 307°
2026-05-06 14:00 49.49345 20.72450 19348 ft 365 kts 307°
2026-05-06 14:00 49.50966 20.69466 18870 ft 364 kts 307°
2026-05-06 14:00 49.52583 20.66486 18375 ft 361 kts 307°
2026-05-06 14:00 49.54188 20.63529 17900 ft 359 kts 307°
2026-05-06 14:01 49.55790 20.60573 17412 ft 357 kts 307°
2026-05-06 14:01 49.57380 20.57635 16932 ft 354 kts 307°
2026-05-06 14:01 49.58948 20.54733 16466 ft 351 kts 307°
2026-05-06 14:01 49.60505 20.51850 16028 ft 346 kts 307°
2026-05-06 14:02 49.62047 20.48993 15612 ft 342 kts 307°
2026-05-06 14:02 49.63559 20.46188 15198 ft 336 kts 307°
2026-05-06 14:02 49.65003 20.43506 14790 ft 332 kts 307°
2026-05-06 14:02 49.66489 20.40743 14369 ft 326 kts 307°
2026-05-06 14:03 49.67925 20.38071 13946 ft 322 kts 307°
2026-05-06 14:03 49.69352 20.35413 13553 ft 320 kts 307°
2026-05-06 14:03 49.70771 20.32764 13138 ft 318 kts 306°
2026-05-06 14:03 49.72160 20.30165 12746 ft 312 kts 306°
2026-05-06 14:04 49.73536 20.27587 12353 ft 306 kts 306°
2026-05-06 14:04 49.74862 20.25093 11990 ft 300 kts 306°
2026-05-06 14:04 49.76162 20.22645 11624 ft 295 kts 306°
2026-05-06 14:04 49.77445 20.20229 11248 ft 291 kts 306°
2026-05-06 14:05 49.78805 20.17902 10879 ft 289 kts 315°
2026-05-06 14:05 49.80478 20.16277 10524 ft 289 kts 334°
2026-05-06 14:05 49.82415 20.15588 10407 ft 280 kts 355°
2026-05-06 14:05 49.84300 20.15865 10302 ft 273 kts 12°
2026-05-06 14:06 49.86157 20.16629 10149 ft 281 kts 14°
2026-05-06 14:06 49.88060 20.17429 10005 ft 279 kts 13°
2026-05-06 14:06 49.89903 20.18200 9901 ft 270 kts 14°
2026-05-06 14:06 49.91691 20.18949 9734 ft 266 kts 14°
2026-05-06 14:07 49.93505 20.19706 9361 ft 266 kts 14°
2026-05-06 14:07 49.95301 20.20456 9043 ft 264 kts 14°
2026-05-06 14:07 49.97047 20.21185 8923 ft 253 kts 14°
2026-05-06 14:07 49.98760 20.21902 8918 ft 256 kts 14°
2026-05-06 14:08 50.00497 20.22629 8447 ft 269 kts 14°
2026-05-06 14:08 50.02348 20.23406 7724 ft 282 kts 14°
2026-05-06 14:08 50.04234 20.24179 7292 ft 281 kts 11°
2026-05-06 14:08 50.06134 20.24229 7161 ft 262 kts 348°
2026-05-06 14:09 50.07929 20.23670 6699 ft 264 kts 345°
2026-05-06 14:09 50.09723 20.23075 6387 ft 260 kts 344°
2026-05-06 14:09 50.11339 20.22014 5976 ft 255 kts 321°
2026-05-06 14:09 50.12525 20.19981 5544 ft 248 kts 295°
2026-05-06 14:10 50.13024 20.17454 5103 ft 242 kts 271°
2026-05-06 14:10 50.12853 20.14859 4664 ft 239 kts 255°
2026-05-06 14:10 50.12504 20.12371 4416 ft 230 kts 256°
2026-05-06 14:10 50.12176 20.09953 4128 ft 225 kts 256°
2026-05-06 14:11 50.11859 20.07613 4012 ft 212 kts 256°
2026-05-06 14:11 50.11572 20.05461 4012 ft 192 kts 256°
2026-05-06 14:11 50.11298 20.03434 3768 ft 188 kts 256°
2026-05-06 14:11 50.11029 20.01481 3533 ft 184 kts 256°
2026-05-06 14:12 50.10760 19.99514 3283 ft 183 kts 256°
2026-05-06 14:12 50.10482 19.97599 3055 ft 183 kts 255°
2026-05-06 14:12 50.10210 19.95689 2817 ft 177 kts 256°
2026-05-06 14:12 50.09958 19.93876 2556 ft 159 kts 255°
2026-05-06 14:13 50.09727 19.92359 2411 ft 136 kts 255°
2026-05-06 14:13 50.09510 19.90937 2219 ft 133 kts 255°
2026-05-06 14:13 50.09312 19.89576 2029 ft 129 kts 254°
2026-05-06 14:13 50.09123 19.88250 1874 ft 123 kts 254°
2026-05-06 14:14 50.08941 19.86961 1692 ft 122 kts 254°
2026-05-06 14:14 50.08754 19.85627 1529 ft 127 kts 256°
2026-05-06 14:14 50.08572 19.84308 1356 ft 125 kts 256°
2026-05-06 14:14 50.08388 19.82951 1201 ft 128 kts 256°
2026-05-06 14:15 50.08206 19.81611 1051 ft 125 kts 257°
2026-05-06 14:15 50.08026 19.80312 872 ft 123 kts 256°
2026-05-06 14:15 50.07854 19.79090 803 ft 105 kts 259°
2026-05-06 14:15 50.07756 19.78370 802 ft 36 kts 258°
2026-05-06 14:16 50.07708 19.78103 802 ft 7 kts 205°
2026-05-06 14:16 50.07641 19.78096 802 ft 12 kts 182°
2026-05-06 14:16 50.07541 19.78088 802 ft 15 kts 182°
2026-05-06 14:16 50.07509 19.78086 802 ft 2 kts 178°
2026-05-06 14:17 50.07473 19.78122 802 ft 10 kts 104°
2026-05-06 14:17 50.07494 19.78292 802 ft 20 kts 78°
2026-05-06 14:17 50.07527 19.78535 802 ft 25 kts 78°
2026-05-06 14:17 50.07567 19.78818 802 ft 28 kts 78°
2026-05-06 14:18 50.07598 19.79041 802 ft 20 kts 78°
2026-05-06 14:18 50.07629 19.79261 802 ft 24 kts 78°
2026-05-06 14:18 50.07664 19.79503 802 ft 21 kts 79°
2026-05-06 14:18 50.07697 19.79754 802 ft 24 kts 76°
2026-05-06 14:19 50.07733 19.80011 802 ft 15 kts 74°
2026-05-06 14:19 50.07737 19.80098 802 ft 5 kts 131°
2026-05-06 14:19 50.07692 19.80152 802 ft 9 kts 137°
2026-05-06 14:19 50.07650 19.80243 802 ft 10 kts 81°
2026-05-06 14:20 50.07664 19.80373 802 ft 13 kts 105°
2026-05-06 14:20 50.07579 19.80421 802 ft 5 kts 174°
2026-05-06 14:20 50.07554 19.80439 802 ft 4 kts 126°
2026-05-06 14:20 50.07542 19.80487 802 ft 6 kts 107°
2026-05-06 14:21 50.07534 19.80527 802 ft 0 kts 107°